Regional Weather Roundup
Issued by NWS

Home | Current Version | Previous Version | Text Only | Print | Product List | Glossary Off
Versions: 1 2 3 4 5 6 7 8 9 10 11 12 13 14 15 16 17 18 19 20 21 22 23 24 25 26 27 28 29 30 31 32 33 34 35 36 37 38 39 40 41 42 43 44 45 46 47 48 49 50

000
ASUS45 KCYS 240110
RWRWY

WYOMING REGIONAL WEATHER ROUNDUP
NATIONAL WEATHER SERVICE CHEYENNE WY
700 PM MDT TUE AUG 23 2016

NOTE:  "FAIR" INDICATES FEW OR NO CLOUDS BELOW 12,000 FEET
WITH NO SIGNIFICANT WEATHER AND/OR OBSTRUCTIONS TO VISIBILITY.

WYZ001-240200-
YELLOWSTONE NATIONAL PARK

CITY           SKY/WX    TMP DP  RH WIND       PRES   REMARKS
LK YELLOWSTONE   N/A     62  11  13 VRB3      30.26R
W YELLOWSTONE  NOT AVBL

$$
WYZ002>013-054>058-071-098>099-240200-
NORTHERN WYOMING

CITY           SKY/WX    TMP DP  RH WIND       PRES   REMARKS
JACKSON        MOSUNNY   66  18  15 S17       30.18R SMOKE
CODY           FAIR      66  30  26 N10       30.10R
GREYBULL       FAIR      79  21  11 N22G28    29.98R
WORLAND        FAIR      78  22  12 N9        29.97R
SHERIDAN       FAIR      72  36  26 W3        30.05R
BUFFALO        FAIR      69  28  21 N12       30.11R
GILLETTE       FAIR      72  29  20 N10       30.04S
HULETT         FAIR      70  32  24 NE3       30.06R
NEWCASTLE      FAIR      73  21  14 N9        30.03S

$$
WYZ014>020-022>026-101>103-240200-
CENTRAL WYOMING

CITY           SKY/WX    TMP DP  RH WIND       PRES   REMARKS
BIG PINEY      FAIR      70  11  10 W15G25    30.20R
PINEDALE       FAIR      68  14  12 NW14G23   30.21R
DUBOIS         FAIR      64  14  14 NW21G28   30.18R
LANDER         FAIR      80  18  10 W12       30.03R
RIVERTON       FAIR      80  18  10 N12       30.02R
CASPER         FAIR      79  18  10 NE9       30.02R
DOUGLAS        FAIR      74  22  14 E13       30.04R

$$
WYZ021-027>030-104>119-240200-
SOUTHERN WYOMING

CITY           SKY/WX    TMP DP  RH WIND       PRES   REMARKS
EVANSTON       FAIR      72  19  13 W16       30.22R
FORT BRIDGER   FAIR      75  21  13 W18G24    30.24R
ROCK SPRINGS   FAIR      73  23  15 W21G29    30.15R
DIXON          FAIR      72  31  22 SW10G16   30.19R
RAWLINS        FAIR      75  22  13 W20       30.15R
SARATOGA       FAIR      73  27  17 SW13G24   30.17S
LARAMIE        FAIR      69  29  22 SE9       30.19R
CHEYENNE       MOCLDY    73  26  17 E7        30.14R
TORRINGTON     FAIR      75  25  15 NE10      30.00R
PINE BLUFFS    FAIR      77  27  15 NE8       30.08R

$$



USA.gov is the U.S. government's official web portal to all federal, state and local government web resources and services.